Zurück zum Katalog

CAPELLA-20

ACADIA

AktivWissenschaftSSO
NORAD 68485·PAYLOAD·🇺🇸 United States

Gestartet Mar 30, 2026 von Vandenberg Space Force Base

Loading…

Nächste Überflüge (nächste 24 Stunden)

TLE

AktuellSource: Space-Track

Epoche: Sep 14, 2026, 14:20 UTC

1 68485U 26067BX  26257.59784441  .00004160  00000-0  42797-3 0  9999
2 68485  97.7667 214.4595 0002502  97.0052 263.1451 14.90846665 25050

Verfolge CAPELLA-20 in Echtzeit mit AllMySat

Download on the App Store